Regional Weather Roundup
Issued by NWS Little Rock, AR

Home | Current Version | Previous Version | Text Only | Print | Product List | Glossary Off
Versions: 1 2 3 4 5 6 7 8 9 10 11 12 13 14 15 16 17 18 19 20 21 22 23 24 25 26

872
ASUS44 KLZK 220105
RWRLZK

WEATHER ROUNDUP FOR ARKANSAS
NATIONAL WEATHER SERVICE LITTLE ROCK AR
800 PM CDT THU MAY 21 2015

NOTE: "FAIR" INDICATES FEW OR NO CLOUDS BELOW 12,000 FEET WITH NO
SIGNIFICANT WEATHER AND/OR OBSTRUCTIONS TO VISIBILITY.

ARZ001-003-010-029-220200-
NORTHWEST ARKANSAS

CITY           SKY/WX    TMP DP  RH WIND       PRES   REMARKS
FAYETTEVILLE   CLEAR     59  48  67 N3        30.19F
FORT SMITH     CLEAR     66  49  54 CALM      30.16S
HARRISON       CLEAR     58  46  64 N3        30.21R
BENTONVILLE    CLEAR     59  45  58 NE3       30.20S
ROGERS         CLEAR     57  48  72 NE5       30.21S
SILOAM SPGS    CLEAR     57  45  62 NE3       30.21S
HIGHFILL       CLEAR     59  47  64 NE5       30.19F
SPRINGDALE     PTCLDY    59  46  63 NE5       30.22S
$$

ARZ004-005-016-220200-
NORTH CENTRAL ARKANSAS

CITY           SKY/WX    TMP DP  RH WIND       PRES   REMARKS
BATESVILLE     CLEAR     63  46  55 CALM      30.20R
FLIPPIN        CLEAR     63  46  55 CALM      30.19R
MTN HOME       CLEAR     58  47  66 CALM      30.19R
$$

ARZ040-041-220200-
WEST CENTRAL ARKANSAS

CITY           SKY/WX    TMP DP  RH WIND       PRES   REMARKS
MENA           CLEAR     64  54  68 CALM      30.17S
MOUNT IDA      CLEAR     63  52  67 CALM      30.15R
$$

ARZ009-017-025-026-028-220200-
NORTHEAST ARKANSAS

CITY           SKY/WX    TMP DP  RH WIND       PRES   REMARKS
CORNING          N/A     57  48  72 NE7       30.22R
JONESBORO      CLEAR     56  48  74 E7        30.21R
NEWPORT        CLEAR     60  52  75 E7        30.22R
WALNUT RIDGE   CLEAR     59  46  63 NE8       30.21R
BLYTHEVILLE    CLOUDY    57  49  74 N6        30.21R
$$

ARZ022-023-033-042-044-220200-
CENTRAL ARKANSAS

CITY           SKY/WX    TMP DP  RH WIND       PRES   REMARKS
LITTLE ROCK    PTCLDY    62  50  64 E9        30.19R
N LITTLE ROCK  PTCLDY    60  53  75 N5        30.19R
JACKSONVILLE   CLEAR     61  51  69 NE5       30.18R
SEARCY         CLEAR     60  50  69 E6        30.21R
HOT SPRINGS    CLEAR     62  52  69 NE6       30.17R
RUSSELLVILLE   CLEAR     64  48  56 NE6       30.18R
CLINTON        FAIR      59  52  77 CALM      30.21S
$$

ARZ036-220200-
EAST ARKANSAS

CITY           SKY/WX    TMP DP  RH WIND       PRES   REMARKS
WEST MEMPHIS   CLOUDY    56  47  71 N9        30.20S
$$

ARZ050-053-066-070-073-220200-
SOUTHWEST ARKANSAS

CITY           SKY/WX    TMP DP  RH WIND       PRES   REMARKS
ARKADELPHIA    FAIR      64  57  78 CALM      30.18R
CAMDEN         PTCLDY    59  52  77 CALM      30.18R
TEXARKANA      CLOUDY    61  56  83 E3        30.16S
EL DORADO      CLOUDY    59  54  83 E5        30.18R
DE QUEEN       CLEAR     65  57  75 SE3       30.14R
$$

ARZ056-057-069-220200-
SOUTHEAST ARKANSAS

CITY           SKY/WX    TMP DP  RH WIND       PRES   REMARKS
PINE BLUFF     CLEAR     59  50  72 NE8       30.18S
STUTTGART      CLEAR     59  48  67 NE10      30.20S
MONTICELLO     PTCLDY    57  50  77 NE5       30.17S

$$





USA.gov is the U.S. government's official web portal to all federal, state and local government web resources and services.